This is the latest recevied weather packets stored in our database for station/object W1LBM. If no packets are shown the sender has not sent any weather packets the latest 10 day(s).
| Time | Temp. | Humidity | Pressure | Rain* | Wind** | Luminosity | Snow |
|---|---|---|---|---|---|---|---|
| 1778093745 | 17.78° C | 77% | 1011.5 hPa | 0 mm | - | 82 W/m² | - |
| 1778093441 | 17.78° C | 76% | 1011.8 hPa | 0 mm | - | 91 W/m² | - |
| 1778093139 | 17.78° C | 75% | 1011.8 hPa | 0 mm | - | 90 W/m² | - |
| 1778092836 | 17.78° C | 74% | 1011.7 hPa | 0 mm | - | 99 W/m² | - |
| 1778092531 | 17.78° C | 74% | 1011.5 hPa | 0 mm | - | 110 W/m² | - |
| 1778092229 | 18.33° C | 74% | 1011.6 hPa | 0 mm | - | 91 W/m² | - |
| 1778091926 | 18.33° C | 73% | 1011.7 hPa | 0 mm | - | 89 W/m² | - |
| 1778091623 | 18.89° C | 72% | 1011.8 hPa | 0 mm | - | 101 W/m² | - |
| 1778091321 | 18.89° C | 72% | 1011.9 hPa | 0 mm | - | 96 W/m² | - |
| 1778091017 | 18.89° C | 71% | 1011.9 hPa | 0 mm | - | 109 W/m² | - |
| 1778090714 | 18.89° C | 70% | 1012.1 hPa | 0 mm | - | 99 W/m² | - |
| 1778090411 | 18.89° C | 70% | 1011.9 hPa | 0 mm | - | 100 W/m² | - |
| 1778090108 | 19.44° C | 69% | 1012.1 hPa | 0 mm | - | 133 W/m² | - |
| 1778089804 | 19.44° C | 69% | 1012.1 hPa | 0 mm | - | 123 W/m² | - |
| 1778089502 | 19.44° C | 68% | 1012 hPa | 0 mm | - | 125 W/m² | - |
| 1778089198 | 20° C | 67% | 1012.1 hPa | 0 mm | - | 126 W/m² | - |
| 1778088896 | 20° C | 67% | 1012.2 hPa | 0 mm | - | 153 W/m² | - |
| 1778088592 | 20° C | 67% | 1012.2 hPa | 0 mm | - | 200 W/m² | - |
| 1778088290 | 20° C | 67% | 1012.3 hPa | 0 mm | - | 163 W/m² | - |
| 1778087986 | 20° C | 66% | 1012.5 hPa | 0 mm | - | 204 W/m² | - |
| 1778087684 | 20° C | 66% | 1012.4 hPa | 0 mm | - | 224 W/m² | - |
| 1778087381 | 20.56° C | 66% | 1012.5 hPa | 0 mm | - | 250 W/m² | - |
| 1778087078 | 20.56° C | 66% | 1012.3 hPa | 0 mm | - | 224 W/m² | - |
| 1778086776 | 20.56° C | 65% | 1012.3 hPa | 0 mm | - | 236 W/m² | - |
| 1778086475 | 21.11° C | 65% | 1012.2 hPa | 0 mm | - | 258 W/m² | - |
* Rain latest hour (hover to see other rain measurements)
** Current wind speed in m/s (hover to see current wind gust speed)